Tracking 26922 objects as of 30-Jan-2023
HD Live streaming from Space Station
objects crossing your sky now

CZ-4 DEB

Track CZ-4 DEB now!
10-day predictions


NORAD ID: 29043
Int'l Code: 2004-035K
Perigee: 570.1 km
Apogee: 581.1 km
Inclination: 97.6 °
Period: 96.0 minutes
Semi major axis: 6946 km
RCS: 0.0201 m2 (small)
Launch date: September 8, 2004
Source: People's Republic of China (PRC)
Launch site: Taiyaun Space Center, China (TSC)

Note: This is SATELLITE DEBRIS
Your satellite tracking list
Your tracking list is empty




NASA's NSSDC Master Catalog

Two Line Element Set (TLE):
1 29043U 04035K   23028.78695124  .00002108  00000-0  17648-3 0  9997
2 29043  97.6314  53.0407 0007957 292.5923  67.4458 14.99486852933767
Source of the keplerian elements: AFSPC